Location: Cornelia
(42.7900°N, 93.6833°W)
Time: 05:06:39
(UTC+00:00)

Daily predictions for brighter satellites

Satellite Brightness Start Highest point End
(mag) Time Altitude Azimuth Time Altitude Azimuth Time Altitude Azimuth
SL-16 R/B 3.5 00:01:09 10° N 00:05:04 19° NE 00:05:04 19° NE
Cosmos 2082 Rocket 2.2 00:01:23 10° SSW 00:07:02 71° ESE 00:11:58 14° NNE
ATLAS 5 CENTAUR R/B 3.4 00:01:46 10° NW 00:07:19 22° NNE 00:08:17 20° NE
NOSS 2-2 (C) 4.4 00:03:32 10° NNW 00:08:49 63° NE 00:16:13 10° SE
Meteor 2-21 4.4 00:04:19 10° N 00:10:26 87° E 00:16:29 10° S
Cosmos 372 Rocket 3.9 00:05:52 10° NNW 00:11:05 66° ENE 00:16:18 10° SSE
CZ-2D R/B 3.3 00:07:26 10° S 00:11:16 81° WSW 00:15:07 10° NNW
USA 267 4.0 00:07:36 14° NE 00:12:49 44° NNW 00:18:55 10° W
Cosmos 1666 Rocket 3.6 00:09:04 10° N 00:13:27 56° E 00:17:46 10° SSE
Cosmos 1634 Rocket 4.1 00:08:39 10° S 00:14:58 81° W 00:21:21 10° N
Cosmos 1328 Rocket 3.8 00:12:58 10° SSE 00:17:12 45° E 00:19:19 26° NE
CZ-2C R/B 3.6 00:17:08 10° S 00:18:37 12° SSE 00:19:38 11° SE
Lacrosse 5 rocket 2.9 00:16:22 10° NNW 00:18:55 20° NNE 00:18:55 20° NNE
Cosmos 2278 3.8 00:13:58 10° NNW 00:19:34 53° ENE 00:25:07 10° SE
Cosmos 2026 Rocket 4.3 00:17:51 10° NNW 00:23:57 67° W 00:29:56 10° S
Cosmos 1500 3.6 00:21:05 10° NNW 00:24:47 62° W 00:28:27 10° S
COSMOS 2406 4.0 00:20:07 10° SW 00:25:42 52° WNW 00:31:19 10° NNE
SKYMED 2 3.4 00:22:37 14° NNE 00:26:20 83° ESE 00:30:40 10° SSW
Landsat 5 3.4 00:26:39 37° NE 00:28:01 59° E 00:31:57 10° S
ARGOS 3.0 00:22:51 10° SSE 00:28:14 72° ENE 00:33:39 10° N
Cosmos 1833 Rocket 4.0 00:25:44 10° SW 00:30:54 37° WNW 00:36:06 10° N
MOS 1-B Rocket 4.2 00:25:09 10° N 00:31:03 77° WNW 00:37:48 10° SSW
COSMOS 2455 3.1 00:26:01 10° SW 00:32:00 67° WNW 00:36:35 18° NNE
SL-08 RB Rocket 3.7 00:30:07 10° SSE 00:34:39 57° ENE 00:39:11 10° N
Meteor 2-15 4.4 00:30:49 10° S 00:36:48 59° E 00:42:13 13° NNE
Meteor 2-6 Rocket 4.1 00:31:57 10° S 00:37:41 73° E 00:42:31 14° NNE
Cosmos 1655 Rocket 4.1 00:31:53 10° N 00:38:08 52° ENE 00:44:19 10° SSE
DMSP B5D2-2 4.4 00:40:33 43° ESE 00:40:33 43° ESE 00:45:23 10° S
Cosmos 1570 Rocket 3.9 00:35:52 10° SSW 00:41:06 89° ESE 00:43:57 28° NNE
USA 234 3.9 00:39:16 10° SSE 00:45:38 54° SW 00:52:02 10° NW
Cosmos 2180 Rocket 4.4 00:39:42 10° S 00:46:04 86° E 00:52:23 10° N
GPS 2-04 Rocket1 4.3 00:42:38 10° WSW 00:46:07 26° S 00:47:01 24° SSE
CZ-4B R/B 3.5 00:41:21 10° S 00:46:45 65° WSW 00:52:05 10° NNW
GEOS 3 Rocket 3.8 00:46:40 49° ENE 00:46:59 49° NE 00:51:59 10° NNW
Cosmos 44 Rocket 4.0 00:43:07 10° NNW 00:46:47 37° NNE 00:46:47 37° NNE
Cosmos 1814 Rocket 4.2 00:42:50 10° SSW 00:48:03 69° WNW 00:51:11 24° N
CZ-2C R/B 3.0 00:46:10 10° N 00:51:18 61° WNW 00:56:22 10° SSW
Cosmos 1818 3.7 00:46:41 10° NNW 00:51:49 51° NE 00:51:49 51° NE
deb Chang Zheng 4 4.4 00:49:57 10° S 00:54:08 50° W 00:58:20 10° NNW
Cosmos 1900 4.1 00:49:16 10° SSW 00:54:08 85° ESE 00:54:41 70° NE
Cosmos 1666 3.5 00:50:46 10° NNW 00:54:22 49° W 00:57:57 10° S
Meteor 2-8 Rocket 4.5 00:50:22 10° S 00:56:30 82° W 01:02:43 10° N
Meteor 1-10 Rocket 4.1 00:51:03 10° S 00:56:51 77° E 00:59:17 36° NNE
Cosmos 1515 Rocket 4.4 00:54:04 10° S 00:56:51 37° SSE 00:56:51 37° SSE
Meteor 1-11 Rocket 4.0 00:54:03 10° N 00:58:22 48° NNE 00:58:22 48° NNE
Feng Yun 1-1 Rocket 4.4 01:02:36 10° SSE 01:08:32 82° WSW 01:14:27 10° NNW
Cosmos 2360 Rocket 4.2 01:08:19 10° N 01:09:21 14° N 01:09:21 14° N
COSMO-SKYMED 1 4.3 01:11:13 14° NNW 01:14:15 30° WNW 01:18:02 10° SW
Cosmos 2208 Rocket 4.5 01:08:57 10° SSW 01:14:16 60° WNW 01:16:02 40° N
CZ-4C R/B 3.1 01:07:43 10° NW 01:15:09 80° WSW 01:21:47 18° SSE
H-2A R/B 4.2 01:11:30 10° SSW 01:15:45 25° W 01:19:56 10° NW
ATLAS CENTAUR R/B 4.1 01:14:01 10° W 01:19:42 23° NW 01:20:38 22° NNW
Cosmos 921 Rocket 4.5 01:21:50 10° SSW 01:24:15 32° SW 01:24:15 32° SW
Cosmos 2322 Rocket 3.8 01:27:05 10° NNW 01:29:19 24° N 01:29:19 24° N
Okean O Rocket 3.9 01:31:28 10° SSW 01:35:00 23° W 01:38:34 10° NW
ISS -0.3 01:34:53 10° WNW 01:35:03 11° WNW 01:35:03 11° WNW
Cosmos 1980 Rocket 4.2 01:34:06 10° NW 01:38:40 26° WSW 01:43:12 10° SSW
SL-16 R/B 3.6 01:44:11 10° NNW 01:46:59 30° NNW 01:46:59 30° NNW
Cosmos 2082 Rocket 4.3 01:47:30 10° W 01:51:40 20° NW 01:53:51 17° NNW
Cosmos 2369 Rocket 4.0 10:05:54 20° SE 10:08:21 28° ESE 10:13:02 10° NE
Cosmos 1943 Rocket 3.4 10:35:16 32° NNE 10:35:16 32° NNE 10:38:11 10° NNE
CZ-2C R/B 4.3 10:30:36 10° SE 10:35:20 31° ENE 10:40:00 10° N
CENTAUR R/B 2.9 10:38:46 52° N 10:38:46 52° N 10:44:17 10° NNE
Cosmos 968 Rocket 4.2 10:45:20 45° NNE 10:45:20 45° NNE 10:48:55 10° NNE
DELTA 2 R/B (1) 4.4 10:47:13 39° S 10:47:42 40° SSE 10:52:50 10° E
NOSS 3-2 (A) 4.3 10:53:54 35° N 10:53:54 35° N 10:58:23 10° NNE
NOSS 3-2 (C) 3.3 11:00:55 60° NNW 11:00:55 60° NNW 11:06:51 10° NNE
Cosmos 1812 3.6 11:03:50 48° ENE 11:03:51 48° E 11:07:34 10° SSE
MOS 1-B Rocket 3.9 11:01:41 10° SSE 11:08:04 83° ENE 11:12:34 17° NNW
Cosmos 1634 Rocket 3.9 11:03:55 10° N 11:10:15 87° E 11:16:28 10° S
SL-8 R/B 4.0 11:17:47 51° NNW 11:18:22 55° NNE 11:23:04 10° E
Tsikada Rocket 4.0 11:12:28 10° SSW 11:18:31 54° WNW 11:24:40 10° N
Landsat 5 4.4 11:14:23 10° SSE 11:18:44 51° ENE 11:22:37 13° N
ATLAS 5 CENTAUR R/B 4.3 11:18:13 10° SSE 11:20:38 16° ESE 11:23:10 10° ENE
SKYMED 2 3.7 11:17:20 10° SSE 11:21:39 71° ENE 11:24:06 25° N
Meteor 2-3 Rocket 4.0 11:22:52 46° NW 11:22:52 46° NW 11:27:49 10° N
Cosmos 2344 4.0 11:24:09 34° NW 11:25:19 36° NW 11:32:34 10° NNE
Meteor 1-31 Rocket 3.0 11:23:05 10° NNE 11:26:59 68° ESE 11:30:52 10° S
USA 238 DEB 4.0 11:27:36 39° WNW 11:28:44 42° NW 11:35:13 10° NNE
USA 238 4.0 11:27:40 39° WNW 11:28:50 42° NW 11:35:20 10° NNE
Cosmos 1782 4.5 11:33:13 20° SSW 11:33:13 20° SSW 11:34:39 10° SSW
Cosmos 921 Rocket 3.0 11:30:39 57° W 11:30:56 59° WSW 11:35:18 10° S
USA 215 3.5 11:27:19 10° ESE 11:33:46 66° NE 11:37:55 24° NW
H-2A R/B 2.6 11:30:47 10° N 11:34:45 64° WSW 11:38:12 10° SSW
Cosmos 836 Rocket 4.4 11:33:20 25° NNW 11:36:26 80° WSW 11:41:38 10° SSE
Cosmos 1862 3.1 11:34:30 10° S 11:38:26 81° W 11:42:23 10° N
SAR-Lupe-3 4.4 11:35:00 10° N 11:38:36 80° WNW 11:42:11 10° SSW
H-2A R/B 4.2 11:35:54 10° ESE 11:39:25 26° ENE 11:43:01 10° N
Cosmos 2263 4.1 11:35:31 10° SSW 11:41:11 73° WNW 11:46:57 10° NNE
Okean 3 Rocket 3.5 11:37:48 10° S 11:42:19 82° W 11:46:54 10° N
Cosmos 1151 Rocket 3.0 11:42:46 24° NNW 11:45:17 62° W 11:49:35 10° S
Meteor 2-8 Rocket 4.5 11:41:43 10° N 11:47:54 85° E 11:54:01 10° S
SJ-12 4.1 11:45:20 10° N 11:49:20 47° WNW 11:53:17 10° SW
Cosmos 1503 Rocket 3.9 11:44:15 10° SSW 11:49:31 82° WNW 11:54:52 10° NNE
BREEZE-M DEB (TANK) 4.5 11:37:03 21° WNW 11:49:44 59° SW 11:55:18 10° SSE
Cosmos 1766 Rocket 3.5 11:46:56 10° SSW 11:51:12 57° W 11:55:28 10° N
Cosmos 2369 Rocket 2.4 11:47:55 16° SW 11:52:08 43° WNW 11:57:29 10° NNE
SL-27 R/B 3.9 11:50:25 10° N 11:53:47 37° ENE 11:57:06 10° SE
